Overview Statistics Trail Chart Weather Telemetry Raw packets
 

This is the latest recevied weather packets stored in our database for station/object K6GMW. If no packets are shown the sender has not sent any weather packets the latest 10 day(s).

<< 1 2 3 4 5 >>
Time Temp. Humidity Pressure Rain* Wind** Luminosity Snow
1788633343 36.67° C 43% 1013.8 hPa 0 mm - 1048 W/m² -
1788633039 36.67° C 42% 1014 hPa 0 mm - 1024 W/m² -
1788632738 36.11° C 44% 1014.1 hPa 0 mm - 1033 W/m² -
1788632438 35.56° C 45% 1014.3 hPa 0 mm - 1074 W/m² -
1788632133 36.67° C 44% 1014.4 hPa 0 mm - 320 W/m² -
1788631832 36.67° C 43% 1014.2 hPa 0 mm - 1052 W/m² -
1788631527 37.22° C 42% 1014.5 hPa 0 mm - 1009 W/m² -
1788631223 36.11° C 45% 1014.4 hPa 0 mm - 1031 W/m² -
1788630922 36.67° C 44% 1014.7 hPa 0 mm - 1034 W/m² -
1788630618 36.67° C 44% 1014.7 hPa 0 mm - 1019 W/m² -
1788630313 36.11° C 45% 1014.8 hPa 0 mm - 1016 W/m² -
1788630009 35.56° C 46% 1015.1 hPa 0 mm - 1071 W/m² -
1788629704 35° C 48% 1015 hPa 0 mm - 691 W/m² -
1788629400 35.56° C 48% 1015 hPa 0 mm - 270 W/m² -
1788629098 36.11° C 46% 1014.9 hPa 0 mm - 1101 W/m² -
1788628794 35.56° C 50% 1015.2 hPa 0 mm - 1069 W/m² -
1788628490 35.56° C 51% 1015.3 hPa 0 mm - 1095 W/m² -
1788628186 35° C 50% 1015.5 hPa 0 mm - 894 W/m² -
1788627882 34.44° C 53% 1015.5 hPa 0 mm - 1045 W/m² -
1788627581 34.44° C 51% 1015.4 hPa 0 mm - 234 W/m² -
1788627276 34.44° C 52% 1015.6 hPa 0 mm - 218 W/m² -
1788626972 33.33° C 54% 1015.5 hPa 0 mm - 478 W/m² -
1788626666 33.33° C 54% 1015.4 hPa 0 mm - 295 W/m² -
1788626361 33.89° C 53% 1015.8 hPa 0 mm - 285 W/m² -
1788626058 33.33° C 54% 1015.7 hPa 0 mm - 955 W/m² -

* Rain latest hour (hover to see other rain measurements)
** Current wind speed in m/s (hover to see current wind gust speed)